Weather History for Taloyoak, NU

Change the Weather History Date:

Tuesday, May 7, 2013

  Actual Average Record
Temperature  
Mean Temperature -4 °F -  
Max Temperature 6 °F 23 °F 28 °F (2012)
Min Temperature -14 °F 13 °F -14 °F (2013)
Degree Days  
Heating Degree Days 69    
Moisture  
Dew Point -9 °F    
Average Humidity 79    
Maximum Humidity 85    
Minimum Humidity 68    
Precipitation  
Precipitation 0.04 in - - ()
Sea Level Pressure  
Sea Level Pressure 29.92 in    
Wind  
Wind Speed 7 mph ()    
Max Wind Speed 16 mph    
Max Gust Speed -    
Visibility 12.0 miles    
Events Fog , Rain , Snow    
Averages and records for this station are not official NWS values.
T = Trace of Precipitation, MM = Missing Value Source: Averaged Metar Reports

Daily Weather History Graph

Daily Weather History Graph

Search for Another Location

Airport:

Trip Planner

Search our weather history database for the weather conditions in past years. The results will help you decide how hot, cold, wet, or windy it might be!

Date:

Astronomy

May. 07, 2013 Rise Set
Actual Time 3:14 AM CDT 11:12 PM CDT
Civil Twilight Sun does not rise Sun does not rise
Nautical Twilight Sun does not rise Sun does not rise
Astronomical Twilight Sun does not rise Sun does not rise
Moon 3:30 AM CDT (5/7) 7:52 PM CDT (5/7)
Length of Visible Light 24h 00m
Length of Day
19h 57m
Waning Crescent, 5% of the Moon is Illuminated
May 7
Waning Crescent
May 9
New
May 17
First Quarter
May 24
Full
May 31
Last Quarter

Hourly Weather History & Observations

Time (CDT) Temp. Windchill Dew Point Humidity Pressure Visibility Wind Dir Wind Speed Gust Speed Precip Events Conditions
12:00 AM -4.0 °F - -9.4 °F 78% 29.99 in 15.0 mi Calm Calm - N/A   Partly Cloudy
1:00 AM -8 °F - -13 °F 68% 29.99 in 15 mi SE 3.5 mph - -   Scattered Clouds
1:00 AM -7.6 °F -16.5 °F -13.0 °F 77% 29.99 in 15.0 mi SE 3.5 mph - N/A   Partly Cloudy
2:00 AM -7.6 °F - -11.2 °F 84% 29.98 in 15.0 mi Calm Calm - N/A Fog Partly Cloudy
3:00 AM -9.4 °F -24.3 °F -14.8 °F 77% 29.97 in 15.0 mi South 6.9 mph - N/A Fog Partly Cloudy
4:00 AM -9.4 °F -20.9 °F -14.8 °F 77% 29.96 in 15.0 mi SSE 4.6 mph - N/A   Scattered Clouds
5:00 AM -13.0 °F -31.3 °F -18.4 °F 77% 29.96 in 15.0 mi SSE 9.2 mph - N/A   Partly Cloudy
6:00 AM -13.0 °F -30.0 °F -18.4 °F 77% 29.95 in 15.0 mi SSE 8.1 mph - N/A   Scattered Clouds
7:00 AM -14 °F - -18 °F 70% 29.94 in 15 mi SSE 10.4 mph - -   Mostly Cloudy
7:00 AM -13.0 °F -32.4 °F -18.4 °F 77% 29.94 in 15.0 mi SSE 10.4 mph - N/A   Mostly Cloudy
8:00 AM -13.0 °F -31.3 °F -16.6 °F 84% 29.93 in 15.0 mi SSE 9.2 mph - N/A Fog Scattered Clouds
9:00 AM -9.4 °F -25.6 °F -13.0 °F 84% 29.92 in 6.0 mi SSE 8.1 mph - N/A   Mostly Cloudy
9:36 AM - - - N/A% - 12.0 mi SSE 9.2 mph - N/A Fog Patches of Fog
10:00 AM -9.4 °F -28.9 °F -13.0 °F 84% 29.91 in 12.0 mi South 11.5 mph - N/A Fog Mostly Cloudy
11:00 AM -5.8 °F -25.2 °F -11.2 °F 77% 29.90 in 15.0 mi South 12.7 mph - N/A Fog Mostly Cloudy
11:40 AM - - - N/A% - 15.0 mi South 10.4 mph - N/A   Mostly Cloudy
12:00 PM -4.0 °F -21.2 °F -7.6 °F 85% 29.90 in 12.0 mi South 10.4 mph - N/A   Mostly Cloudy
1:00 PM -0 °F - -4 °F 77% 29.88 in 15 mi SSW 12.7 mph - - Snow Snow
1:00 PM -0.4 °F -18.4 °F -4.0 °F 85% 29.88 in 15.0 mi SSW 12.7 mph - N/A   Mostly Cloudy
1:43 PM - - - N/A% - 12.0 mi SW 9.2 mph - N/A   Unknown
2:00 PM 1.4 °F -15.3 °F -2.2 °F 85% 29.88 in 12.0 mi SW 11.5 mph - N/A Snow Light Snow
3:00 PM 3.2 °F -12.2 °F -0.4 °F 85% 29.88 in 1.5 mi WSW 10.4 mph - N/A Snow Light Snow Grains
3:30 PM - - - N/A% - 1.0 mi West 12.7 mph - N/A Snow Light Snow Grains
3:47 PM - - - N/A% - 2.0 mi West 12.7 mph - N/A Snow Light Snow Grains
4:00 PM 3.2 °F -13.9 °F -0.4 °F 85% 29.88 in 3.0 mi West 12.7 mph - N/A Snow Light Snow Grains
4:18 PM - - - N/A% - 4.0 mi WSW 10.4 mph - N/A Snow Light Snow Grains
5:00 PM 5.0 °F -11.6 °F -0.4 °F 78% 29.87 in 8.0 mi West 12.7 mph - N/A Snow Light Snow Grains
6:00 PM 5.0 °F -13.6 °F -0.4 °F 78% 29.88 in 8.0 mi WNW 16.1 mph - N/A Fog , Snow Light Snow Grains
6:21 PM - - - N/A% - 10.0 mi West 13.8 mph - N/A Fog Mostly Cloudy
7:00 PM 4 °F - -1 °F 70% 29.88 in 15 mi WNW 11.5 mph - - Rain Light Freezing Rain
7:00 PM 5.0 °F -11.6 °F -0.4 °F 78% 29.88 in 15.0 mi WNW 12.7 mph - N/A Fog Partly Cloudy
8:00 PM 1.4 °F -14.5 °F -4.0 °F 78% 29.88 in 15.0 mi WNW 10.4 mph - N/A   Partly Cloudy
9:00 PM -0.4 °F -17.6 °F -5.8 °F 78% 29.89 in 15.0 mi WNW 11.5 mph - N/A   Partly Cloudy
10:00 PM -4.0 °F -24.5 °F -9.4 °F 78% 29.89 in 15.0 mi WNW 15.0 mph - N/A   Partly Cloudy
11:00 PM -5.8 °F -26.8 °F -9.4 °F 84% 29.89 in 15.0 mi WNW 15.0 mph - N/A   Partly Cloudy